Kenosha, WI

1:40 AM CDT on October 22, 2017 (GMT -0500)
Kenosha Regional

Weather History for KENW - July, 2013

Change the Weather History Date:

Sunday, July 21, 2013

  Actual Average Record
Temperature  
Mean Temperature 71 °F -  
Max Temperature 81 °F 77 °F 100 °F (1983)
Min Temperature 62 °F 60 °F 46 °F (1975)
Cooling Degree Days 6    
Growing Degree Days 21 (Base 50)    
Moisture  
Dew Point 64 °F    
Average Humidity 86    
Maximum Humidity 94    
Minimum Humidity 64    
Precipitation  
Precipitation 1.29 in - - ()
Sea Level Pressure  
Sea Level Pressure 29.94 in    
Wind  
Wind Speed 8 mph (NE)    
Max Wind Speed 16 mph    
Max Gust Speed 23 mph    
Visibility 6 miles    
Events Fog , Rain , Thunderstorm    
Averages and records for this station are not official NWS values.
T = Trace of Precipitation, MM = Missing Value Source: NWS Daily Summary

Daily Weather History Graph

Daily Weather History Graph

Search for Another Location

Airport or City:

Trip Planner

Search our weather history database for the weather conditions in past years. The results will help you decide how hot, cold, wet, or windy it might be!

Date:

Astronomy

Jul. 21, 2013 Rise Set
Actual Time 5:33 AM CDT 8:22 PM CDT
Civil Twilight 4:59 AM CDT 8:55 PM CDT
Nautical Twilight 4:17 AM CDT 9:37 PM CDT
Astronomical Twilight 3:29 AM CDT 10:25 PM CDT
Moon 7:19 PM CDT (7/21) 4:18 AM CDT (7/21)
Length of Visible Light 15h 55m
Length of Day
14h 49m
Waxing Gibbous, 98% of the Moon is Illuminated
Jul 21
Waxing Gibbous
Jul 22
Full
Jul 29
Last Quarter
Aug 6
New
Aug 14
First Quarter

Hourly Weather History & Observations

Time (CDT) Temp. Heat Index Dew Point Humidity Pressure Visibility Wind Dir Wind Speed Gust Speed Precip Events Conditions
12:53 AM 64.0 °F - 59.0 °F 84% 29.97 in 10.0 mi North 4.6 mph - N/A   Clear
1:53 AM 63.0 °F - 57.9 °F 84% 29.96 in 10.0 mi NNE 4.6 mph - N/A   Clear
2:53 AM 64.0 °F - 59.0 °F 84% 29.96 in 10.0 mi NE 6.9 mph - N/A   Clear
3:53 AM 63.0 °F - 57.9 °F 84% 29.95 in 10.0 mi ENE 5.8 mph - N/A   Clear
4:53 AM 62.1 °F - 57.9 °F 86% 29.96 in 10.0 mi East 3.5 mph - N/A   Clear
5:53 AM 63.0 °F - 59.0 °F 87% 29.97 in 10.0 mi ENE 4.6 mph - N/A   Scattered Clouds
6:53 AM 66.9 °F - 61.0 °F 81% 29.98 in 10.0 mi ENE 3.5 mph - N/A   Partly Cloudy
7:53 AM 72.0 °F - 63.0 °F 73% 29.99 in 10.0 mi East 9.2 mph - N/A   Overcast
8:53 AM 73.9 °F - 64.0 °F 71% 29.98 in 10.0 mi ESE 9.2 mph - N/A   Clear
9:53 AM 75.9 °F - 63.0 °F 64% 29.99 in 10.0 mi ESE 9.2 mph - N/A   Clear
10:53 AM 77.0 °F - 64.9 °F 66% 29.99 in 10.0 mi ESE 8.1 mph - N/A   Partly Cloudy
11:53 AM 78.1 °F - 66.9 °F 68% 29.98 in 10.0 mi Variable 5.8 mph - N/A   Partly Cloudy
12:53 PM 80.1 °F 82.3 °F 66.9 °F 64% 29.96 in 10.0 mi East 11.5 mph - N/A   Clear
1:53 PM 80.1 °F 82.7 °F 68.0 °F 67% 29.95 in 10.0 mi East 9.2 mph - N/A   Clear
2:53 PM 77.0 °F - 66.9 °F 71% 29.93 in 10.0 mi East 9.2 mph - N/A   Clear
3:53 PM 79.0 °F - 68.0 °F 69% 29.90 in 10.0 mi East 11.5 mph - N/A   Partly Cloudy
4:53 PM 75.0 °F - 69.1 °F 82% 29.87 in 9.0 mi East 11.5 mph - 0.00 in   Scattered Clouds
5:09 PM 73.4 °F - 69.8 °F 88% 29.89 in 8.0 mi ENE 12.7 mph - N/A Thunderstorm Thunderstorm
5:32 PM 71.6 °F - 68.0 °F 88% 29.91 in 3.0 mi East 6.9 mph - 0.02 in Rain , Thunderstorm Thunderstorms and Rain
5:37 PM 73.4 °F - 69.8 °F 88% 29.93 in 0.8 mi South 9.2 mph - 0.11 in Rain , Thunderstorm Heavy Thunderstorms and Rain
5:44 PM 71.6 °F - 68.0 °F 88% 29.94 in 0.8 mi WNW 8.1 mph - 0.28 in Rain , Thunderstorm Heavy Thunderstorms and Rain
5:53 PM 70.0 °F - 66.9 °F 90% 29.94 in 0.8 mi North 13.8 mph 21.9 mph 0.54 in Rain , Thunderstorm Heavy Thunderstorms and Rain
6:00 PM 68.0 °F - 64.4 °F 88% 29.95 in 0.8 mi North 12.7 mph 21.9 mph 0.05 in Rain , Thunderstorm Heavy Thunderstorms and Rain
6:03 PM 66.2 °F - 64.4 °F 94% 29.94 in 2.0 mi NW 9.2 mph 19.6 mph 0.05 in Rain , Thunderstorm Light Thunderstorms and Rain
6:10 PM 66.2 °F - 64.4 °F 94% 29.94 in 3.0 mi North 9.2 mph 20.7 mph 0.05 in Rain , Thunderstorm Light Thunderstorms and Rain
6:13 PM 66.2 °F - 64.4 °F 94% 29.94 in 3.0 mi North 9.2 mph 20.7 mph 0.05 in Rain , Thunderstorm Light Thunderstorms and Rain
6:20 PM 66.2 °F - 64.4 °F 94% 29.93 in 4.0 mi NNE 16.1 mph 21.9 mph 0.05 in Thunderstorm Overcast
6:35 PM 68.0 °F - 66.2 °F 94% 29.95 in 5.0 mi North 10.4 mph 20.7 mph 0.06 in Rain , Thunderstorm Light Thunderstorms and Rain
6:44 PM 66.2 °F - 64.4 °F 94% 29.96 in 1.8 mi North 13.8 mph 20.7 mph 0.09 in Rain , Thunderstorm Thunderstorms and Rain
6:53 PM 66.9 °F - 64.9 °F 93% 29.95 in 0.5 mi NNE 12.7 mph 19.6 mph 0.22 in Fog , Rain , Thunderstorm Heavy Thunderstorms and Rain
6:54 PM 66.2 °F - 64.4 °F 94% 29.96 in 0.8 mi NNE 12.7 mph 19.6 mph 0.02 in Rain , Thunderstorm Heavy Thunderstorms and Rain
7:14 PM 66.2 °F - 64.4 °F 94% 29.97 in 1.0 mi NNE 11.5 mph 20.7 mph 0.18 in Rain , Thunderstorm Heavy Thunderstorms and Rain
7:29 PM 64.4 °F - 62.6 °F 94% 29.98 in 0.8 mi North 9.2 mph 19.6 mph 0.39 in Rain , Thunderstorm Heavy Thunderstorms and Rain
7:35 PM 64.4 °F - 62.6 °F 94% 29.99 in 1.0 mi North 8.1 mph 17.3 mph 0.44 in Rain , Thunderstorm Heavy Thunderstorms and Rain
7:44 PM 64.4 °F - 62.6 °F 94% 29.96 in 3.0 mi NNE 16.1 mph 23.0 mph 0.47 in Rain Rain
7:53 PM 64.0 °F - 62.1 °F 93% 29.95 in 4.0 mi NNE 16.1 mph 21.9 mph 0.48 in Rain Rain
8:07 PM 64.4 °F - 62.6 °F 94% 29.95 in 6.0 mi NE 16.1 mph 23.0 mph 0.03 in Rain Rain
8:53 PM 64.9 °F - 63.0 °F 93% 29.94 in 6.0 mi NE 5.8 mph - 0.04 in   Clear
9:53 PM 66.0 °F - 64.0 °F 93% 29.93 in 6.0 mi East 3.5 mph - N/A   Clear
10:53 PM 66.9 °F - 64.9 °F 93% 29.90 in 5.0 mi Calm Calm - N/A   Clear
11:30 PM 64.4 °F - 62.6 °F 94% 29.90 in 1.5 mi Calm Calm - 0.01 in   Clear
11:39 PM 64.4 °F - 62.6 °F 94% 29.90 in 0.8 mi Calm Calm - 0.01 in   Scattered Clouds
11:48 PM 64.4 °F - 62.6 °F 94% 29.90 in 1.8 mi Calm Calm - 0.01 in   Mostly Cloudy
11:53 PM 66.0 °F - 64.0 °F 93% 29.89 in 2.5 mi Calm Calm - 0.01 in   Scattered Clouds